| time (UTC) | temp F | wind direction | speed MPH | gust MPH | rain 1hr in | rain 24hr in | rain mn in | humidity % | barometer mb |
| 20260903093145 | 78 | 265 | 0.0 | 0.0 | 0.00 | 0.09 | 0.00 | 97 | 1013.6 |
| 20260903092703 | 78 | 265 | 0.0 | 0.0 | 0.00 | 0.09 | 0.00 | 97 | 1013.5 |
| 20260903092140 | 78 | 265 | 0.0 | 0.0 | 0.00 | 0.09 | 0.00 | 97 | 1013.3 |
| 20260903091638 | 78 | 265 | 0.0 | 0.0 | 0.00 | 0.09 | 0.00 | 97 | 1013.5 |
| 20260903091214 | 78 | 265 | 0.0 | 0.0 | 0.00 | 0.09 | 0.00 | 97 | 1013.5 |
| 20260903090725 | 78 | 265 | 0.0 | 0.0 | 0.00 | 0.09 | 0.00 | 97 | 1013.5 |
| 20260903090221 | 78 | 265 | 0.0 | 0.0 | 0.00 | 0.09 | 0.00 | 97 | 1013.5 |
| 20260903085727 | 78 | 265 | 0.0 | 0.0 | 0.00 | 0.09 | 0.00 | 97 | 1013.5 |
| 20260903085143 | 78 | 265 | 0.0 | 0.0 | 0.00 | 0.09 | 0.00 | 97 | 1013.5 |
| 20260903084641 | 78 | 265 | 0.0 | 0.0 | 0.00 | 0.09 | 0.00 | 97 | 1013.4 |
| 20260903084140 | 78 | 265 | 0.0 | 0.0 | 0.00 | 0.09 | 0.00 | 97 | 1013.5 |
| 20260903083716 | 78 | 265 | 0.0 | 0.0 | 0.00 | 0.09 | 0.00 | 97 | 1013.4 |
| 20260903083132 | 78 | 265 | 0.0 | 0.0 | 0.00 | 0.09 | 0.00 | 97 | 1013.4 |
| 20260903082630 | 78 | 265 | 0.0 | 0.0 | 0.00 | 0.09 | 0.00 | 97 | 1013.5 |
| 20260903082207 | 78 | 265 | 0.0 | 0.0 | 0.00 | 0.09 | 0.00 | 97 | 1013.5 |
| 20260903081644 | 77 | 265 | 0.0 | 0.0 | 0.00 | 0.09 | 0.00 | 97 | 1013.4 |
| 20260903081142 | 77 | 265 | 0.0 | 0.0 | 0.00 | 0.09 | 0.00 | 97 | 1013.4 |
| 20260903080700 | 77 | 265 | 0.0 | 0.0 | 0.00 | 0.09 | 0.00 | 97 | 1013.4 |
| 20260903080141 | 77 | 265 | 0.0 | 0.0 | 0.00 | 0.09 | 0.00 | 97 | 1013.4 |
| 20260903075630 | 77 | 265 | 0.0 | 0.0 | 0.00 | 0.09 | 0.00 | 97 | 1013.4 |
| 20260903075148 | 77 | 265 | 0.0 | 0.0 | 0.00 | 0.09 | 0.00 | 97 | 1013.2 |
| 20260903074642 | 77 | 265 | 0.0 | 0.0 | 0.00 | 0.09 | 0.00 | 96 | 1013.4 |
| 20260903074136 | 77 | 265 | 0.0 | 0.0 | 0.00 | 0.09 | 0.00 | 96 | 1013.4 |
| 20260903073748 | 77 | 265 | 0.0 | 0.0 | 0.00 | 0.09 | 0.00 | 97 | 1013.5 |
| 20260903073241 | 77 | 265 | 0.0 | 0.0 | 0.00 | 0.09 | 0.00 | 96 | 1013.6 |
| 20260903072655 | 77 | 265 | 0.0 | 0.0 | 0.00 | 0.09 | 0.00 | 96 | 1013.5 |
| 20260903072132 | 77 | 265 | 0.0 | 0.0 | 0.00 | 0.09 | 0.00 | 96 | 1013.5 |
| 20260903071709 | 77 | 265 | 0.0 | 0.0 | 0.00 | 0.09 | 0.00 | 96 | 1013.7 |
| 20260903071146 | 77 | 265 | 0.0 | 0.0 | 0.00 | 0.09 | 0.00 | 96 | 1013.8 |
| 20260903070643 | 77 | 265 | 0.0 | 0.0 | 0.00 | 0.09 | 0.00 | 96 | 1013.8 |
| 20260903070141 | 77 | 265 | 0.0 | 0.0 | 0.00 | 0.15 | 0.00 | 96 | 1013.8 |
| 20260903065634 | 77 | 265 | 0.0 | 0.0 | 0.00 | 0.15 | 0.00 | 96 | 1014.0 |
| 20260903065228 | 77 | 265 | 0.0 | 0.0 | 0.00 | 0.15 | 0.00 | 96 | 1014.0 |
| 20260903064743 | 77 | 265 | 0.0 | 0.0 | 0.00 | 0.15 | 0.00 | 96 | 1014.0 |
| 20260903064137 | 77 | 265 | 0.0 | 0.0 | 0.00 | 0.15 | 0.00 | 96 | 1013.9 |
| 20260903063653 | 77 | 265 | 0.0 | 0.0 | 0.00 | 0.15 | 0.00 | 96 | 1013.8 |
| 20260903063229 | 77 | 265 | 0.0 | 0.0 | 0.00 | 0.15 | 0.00 | 96 | 1013.7 |
| 20260903062744 | 77 | 265 | 0.0 | 0.0 | 0.00 | 0.15 | 0.00 | 96 | 1013.8 |
| 20260903062641 | 77 | 265 | 0.0 | 0.0 | 0.00 | 0.15 | 0.00 | 96 | 1013.8 |
| 20260903062217 | 77 | 265 | 0.0 | 0.0 | 0.00 | 0.15 | 0.00 | 96 | 1013.8 |
| 20260903061652 | 77 | 265 | 0.0 | 0.0 | 0.00 | 0.15 | 0.00 | 96 | 1013.7 |
| 20260903061207 | 77 | 265 | 0.0 | 0.0 | 0.00 | 0.15 | 0.00 | 96 | 1013.7 |
| 20260903060644 | 77 | 265 | 0.0 | 0.0 | 0.00 | 0.15 | 0.00 | 96 | 1013.8 |
| 20260903060142 | 77 | 265 | 0.0 | 0.0 | 0.00 | 0.59 | 0.00 | 96 | 1013.9 |
| 20260903055650 | 77 | 265 | 0.0 | 0.0 | 0.00 | 0.59 | 0.00 | 96 | 1014.1 |
| 20260903055146 | 77 | 265 | 0.0 | 0.0 | 0.00 | 0.59 | 0.00 | 96 | 1014.3 |
| 20260903054644 | 77 | 265 | 0.0 | 0.0 | 0.00 | 0.59 | 0.00 | 96 | 1014.4 |
| 20260903054142 | 77 | 265 | 0.0 | 0.0 | 0.00 | 0.59 | 0.00 | 96 | 1014.3 |
| 20260903053700 | 77 | 265 | 0.0 | 0.0 | 0.00 | 0.59 | 0.00 | 96 | 1014.5 |
| 20260903053157 | 77 | 265 | 0.0 | 0.0 | 0.00 | 0.59 | 0.00 | 96 | 1014.6 |
| 20260903052734 | 76 | 265 | 0.0 | 0.0 | 0.00 | 0.59 | 0.00 | 96 | 1014.7 |
| 20260903052147 | 76 | 265 | 0.0 | 0.0 | 0.00 | 0.59 | 0.00 | 96 | 1014.7 |
| 20260903051743 | 76 | 265 | 0.0 | 0.0 | 0.00 | 0.59 | 0.00 | 95 | 1014.9 |
| 20260903051640 | 76 | 265 | 0.0 | 0.0 | 0.00 | 0.59 | 0.00 | 95 | 1014.9 |
| 20260903051156 | 76 | 265 | 0.0 | 0.0 | 0.00 | 0.59 | 0.00 | 95 | 1015.0 |
| 20260903050632 | 76 | 265 | 0.0 | 0.0 | 0.00 | 0.59 | 0.00 | 95 | 1015.2 |
| 20260903050225 | 76 | 265 | 0.0 | 0.0 | 0.01 | 0.59 | 0.00 | 95 | 1015.1 |
| 20260903050142 | 76 | 265 | 0.0 | 0.0 | 0.01 | 0.59 | 0.00 | 95 | 1015.1 |
| 20260903045633 | 77 | 265 | 0.0 | 0.0 | 0.01 | 0.59 | 0.00 | 95 | 1015.1 |
| 20260903045130 | 76 | 265 | 0.0 | 0.0 | 0.01 | 0.59 | 0.00 | 95 | 1015.1 |
| 20260903044648 | 76 | 265 | 0.0 | 0.0 | 0.01 | 0.59 | 0.00 | 95 | 1015.4 |
| 20260903044225 | 76 | 265 | 0.0 | 0.0 | 0.02 | 0.59 | 0.00 | 95 | 1015.4 |
| 20260903043716 | 76 | 265 | 0.0 | 0.0 | 0.03 | 0.59 | 0.00 | 95 | 1015.5 |
| 20260903043129 | 76 | 265 | 0.0 | 0.0 | 0.04 | 0.59 | 0.00 | 95 | 1015.7 |
| 20260903042630 | 76 | 265 | 0.0 | 4.0 | 0.04 | 0.59 | 0.00 | 95 | 1015.6 |
| 20260903042225 | 76 | 265 | 1.0 | 4.0 | 0.05 | 0.59 | 0.00 | 95 | 1015.8 |
| 20260903041700 | 76 | 265 | 2.0 | 4.0 | 0.07 | 0.59 | 0.00 | 95 | 1015.8 |
| 20260903041156 | 76 | 261 | 1.0 | 5.0 | 0.08 | 0.59 | 0.00 | 95 | 1015.8 |
| 20260903040712 | 76 | 257 | 2.0 | 5.0 | 0.09 | 0.59 | 0.00 | 94 | 1015.8 |
| 20260903040207 | 76 | 262 | 2.0 | 8.0 | 0.08 | 0.58 | 0.58 | 94 | 1015.7 |
| 20260903035655 | 76 | 246 | 3.0 | 8.0 | 0.08 | 0.58 | 0.58 | 94 | 1015.9 |
| 20260903035152 | 76 | 247 | 3.0 | 10.0 | 0.08 | 0.58 | 0.58 | 94 | 1015.8 |
| 20260903034649 | 76 | 270 | 3.0 | 10.0 | 0.08 | 0.58 | 0.58 | 93 | 1016.1 |
| 20260903034146 | 77 | 252 | 1.0 | 10.0 | 0.07 | 0.57 | 0.57 | 93 | 1016.2 |
| 20260903033706 | 77 | 262 | 5.0 | 10.0 | 0.06 | 0.56 | 0.56 | 93 | 1016.3 |
| 20260903033201 | 77 | 255 | 4.0 | 13.0 | 0.05 | 0.55 | 0.55 | 93 | 1016.1 |
| 20260903032657 | 78 | 260 | 4.0 | 12.0 | 0.05 | 0.55 | 0.55 | 92 | 1016.1 |
| 20260903032234 | 78 | 257 | 6.0 | 12.0 | 0.03 | 0.53 | 0.53 | 92 | 1016.1 |
| 20260903032152 | 78 | 257 | 6.0 | 12.0 | 0.03 | 0.53 | 0.53 | 92 | 1016.1 |
| 20260903031648 | 79 | 250 | 8.0 | 15.0 | 0.02 | 0.52 | 0.52 | 91 | 1016.2 |
| 20260903031146 | 79 | 269 | 8.0 | 15.0 | 0.01 | 0.51 | 0.51 | 90 | 1016.1 |
| 20260903030643 | 79 | 212 | 4.0 | 12.0 | 0.00 | 0.50 | 0.50 | 88 | 1016.2 |
| 20260903030141 | 80 | 277 | 5.0 | 10.0 | 0.00 | 0.50 | 0.50 | 87 | 1016.1 |
| 20260903025730 | 80 | 248 | 3.0 | 8.0 | 0.00 | 0.50 | 0.50 | 87 | 1015.9 |
| 20260903025648 | 80 | 248 | 3.0 | 8.0 | 0.00 | 0.50 | 0.50 | 87 | 1015.9 |
| 20260903025146 | 80 | 245 | 2.0 | 5.0 | 0.00 | 0.50 | 0.50 | 87 | 1015.9 |
| 20260903024643 | 80 | 246 | 2.0 | 9.0 | 0.00 | 0.50 | 0.50 | 86 | 1015.9 |
| 20260903024141 | 81 | 263 | 2.0 | 10.0 | 0.00 | 0.50 | 0.50 | 86 | 1015.9 |
| 20260903023639 | 81 | 198 | 4.0 | 9.0 | 0.00 | 0.50 | 0.50 | 86 | 1015.7 |
| 20260903023138 | 82 | 261 | 5.0 | 9.0 | 0.00 | 0.50 | 0.50 | 86 | 1015.6 |
| 20260903022715 | 82 | 230 | 5.0 | 10.0 | 0.00 | 0.50 | 0.50 | 85 | 1015.5 |
| 20260903022130 | 83 | 238 | 5.0 | 8.0 | 0.00 | 0.50 | 0.50 | 83 | 1015.4 |
| 20260903021708 | 85 | 229 | 4.0 | 7.0 | 0.00 | 0.50 | 0.50 | 82 | 1015.2 |
| 20260903021143 | 85 | 155 | 3.0 | 6.0 | 0.00 | 0.50 | 0.50 | 85 | 1015.3 |
| 20260903020658 | 85 | 105 | 1.0 | 9.0 | 0.00 | 0.50 | 0.50 | 85 | 1015.2 |
| 20260903020135 | 85 | 105 | 2.0 | 7.0 | 0.00 | 0.50 | 0.50 | 85 | 1015.1 |
| 20260903015642 | 85 | 105 | 3.0 | 6.0 | 0.00 | 0.50 | 0.50 | 86 | 1015.2 |
| 20260903015239 | 85 | 105 | 2.0 | 6.0 | 0.00 | 0.50 | 0.50 | 86 | 1014.9 |
| 20260903014631 | 85 | 105 | 3.0 | 4.0 | 0.00 | 0.50 | 0.50 | 85 | 1014.7 |
| 20260903014129 | 85 | 105 | 2.0 | 8.0 | 0.00 | 0.50 | 0.50 | 86 | 1014.7 |
| 20260903013647 | 85 | 91 | 4.0 | 8.0 | 0.00 | 0.50 | 0.50 | 85 | 1014.7 |
| 20260903013144 | 85 | 94 | 4.0 | 7.0 | 0.00 | 0.50 | 0.50 | 85 | 1014.7 |
| 20260903012722 | 85 | 107 | 3.0 | 8.0 | 0.00 | 0.50 | 0.50 | 86 | 1014.7 |
| 20260903012158 | 85 | 109 | 4.0 | 8.0 | 0.00 | 0.50 | 0.50 | 86 | 1014.7 |
| 20260903011635 | 85 | 107 | 4.0 | 8.0 | 0.00 | 0.50 | 0.50 | 86 | 1014.7 |
| 20260903011154 | 85 | 86 | 4.0 | 8.0 | 0.00 | 0.50 | 0.50 | 85 | 1014.6 |
| 20260903010635 | 85 | 119 | 2.0 | 9.0 | 0.00 | 0.50 | 0.50 | 86 | 1014.8 |
| 20260903010133 | 85 | 119 | 4.0 | 9.0 | 0.00 | 0.50 | 0.50 | 86 | 1014.8 |
| 20260903005641 | 85 | 116 | 3.0 | 7.0 | 0.00 | 0.50 | 0.50 | 86 | 1014.7 |
| 20260903005140 | 85 | 116 | 2.0 | 8.0 | 0.00 | 0.50 | 0.50 | 85 | 1014.6 |
| 20260903004718 | 85 | 116 | 5.0 | 8.0 | 0.00 | 0.50 | 0.50 | 85 | 1014.6 |
| 20260903004152 | 85 | 107 | 2.0 | 9.0 | 0.00 | 0.50 | 0.50 | 85 | 1014.6 |
| 20260903003703 | 85 | 107 | 5.0 | 9.0 | 0.00 | 0.50 | 0.50 | 85 | 1014.4 |
| 20260903003159 | 85 | 107 | 3.0 | 9.0 | 0.00 | 0.50 | 0.50 | 85 | 1014.3 |
| 20260903002636 | 85 | 107 | 4.0 | 9.0 | 0.00 | 0.50 | 0.50 | 85 | 1014.3 |
| 20260903002137 | 85 | 107 | 3.0 | 8.0 | 0.00 | 0.50 | 0.50 | 85 | 1014.3 |
| 20260903001633 | 85 | 107 | 4.0 | 8.0 | 0.00 | 0.50 | 0.50 | 85 | 1014.1 |
| 20260903001131 | 85 | 116 | 3.0 | 7.0 | 0.00 | 0.50 | 0.50 | 84 | 1014.1 |
| 20260903000649 | 85 | 116 | 3.0 | 6.0 | 0.00 | 0.50 | 0.50 | 84 | 1014.2 |
| 20260903000146 | 86 | 116 | 3.0 | 7.0 | 0.00 | 0.50 | 0.50 | 84 | 1014.2 |
| 20260902235655 | 86 | 116 | 3.0 | 7.0 | 0.00 | 0.50 | 0.50 | 84 | 1014.2 |
| 20260902235232 | 85 | 116 | 3.0 | 7.0 | 0.00 | 0.50 | 0.50 | 84 | 1014.3 |
| 20260902234628 | 85 | 134 | 4.0 | 7.0 | 0.00 | 0.50 | 0.50 | 84 | 1014.1 |
| 20260902234147 | 85 | 98 | 4.0 | 7.0 | 0.00 | 0.50 | 0.50 | 84 | 1013.9 |
| 20260902233726 | 85 | 109 | 3.0 | 5.0 | 0.00 | 0.50 | 0.50 | 85 | 1014.0 |
| 20260902233218 | 85 | 76 | 3.0 | 7.0 | 0.00 | 0.50 | 0.50 | 85 | 1014.0 |
| 20260902232638 | 85 | 113 | 3.0 | 7.0 | 0.00 | 0.50 | 0.50 | 84 | 1013.8 |
| 20260902232210 | 85 | 103 | 5.0 | 8.0 | 0.00 | 0.50 | 0.50 | 84 | 1013.7 |
| 20260902231726 | 85 | 94 | 4.0 | 8.0 | 0.00 | 0.50 | 0.50 | 84 | 1013.7 |
| 20260902231142 | 85 | 85 | 4.0 | 9.0 | 0.00 | 0.50 | 0.50 | 84 | 1014.0 |
| 20260902230718 | 85 | 88 | 5.0 | 9.0 | 0.00 | 0.50 | 0.50 | 84 | 1014.1 |
| 20260902230635 | 85 | 88 | 5.0 | 9.0 | 0.00 | 0.50 | 0.50 | 84 | 1014.1 |
| 20260902230130 | 86 | 76 | 4.0 | 7.0 | 0.00 | 0.50 | 0.50 | 84 | 1014.1 |
| 20260902225637 | 86 | 97 | 3.0 | 6.0 | 0.00 | 0.50 | 0.50 | 84 | 1014.2 |
| 20260902225213 | 86 | 119 | 3.0 | 9.0 | 0.00 | 0.50 | 0.50 | 84 | 1014.1 |
| 20260902224646 | 86 | 115 | 2.0 | 9.0 | 0.00 | 0.50 | 0.50 | 84 | 1013.9 |
| 20260902224203 | 86 | 55 | 3.0 | 9.0 | 0.00 | 0.50 | 0.50 | 83 | 1013.9 |
| 20260902223639 | 86 | 72 | 6.0 | 9.0 | 0.00 | 0.50 | 0.50 | 83 | 1013.9 |
| 20260902223216 | 86 | 74 | 6.0 | 9.0 | 0.00 | 0.50 | 0.50 | 83 | 1013.9 |
| 20260902222631 | 86 | 98 | 4.0 | 8.0 | 0.00 | 0.50 | 0.50 | 83 | 1013.9 |
| 20260902222208 | 86 | 107 | 3.0 | 8.0 | 0.00 | 0.50 | 0.50 | 83 | 1014.0 |
| 20260902221705 | 86 | 110 | 4.0 | 8.0 | 0.00 | 0.50 | 0.50 | 83 | 1014.1 |
| 20260902221143 | 86 | 119 | 5.0 | 8.0 | 0.00 | 0.50 | 0.50 | 83 | 1014.1 |
| 20260902220641 | 86 | 105 | 4.0 | 9.0 | 0.00 | 0.50 | 0.50 | 83 | 1014.0 |
| 20260902220220 | 86 | 94 | 5.0 | 10.0 | 0.00 | 0.50 | 0.50 | 83 | 1014.0 |
| 20260902215644 | 86 | 80 | 6.0 | 10.0 | 0.00 | 0.50 | 0.50 | 83 | 1014.0 |
| 20260902215143 | 86 | 100 | 4.0 | 9.0 | 0.00 | 0.50 | 0.50 | 82 | 1013.9 |
| 20260902214701 | 87 | 111 | 4.0 | 9.0 | 0.00 | 0.50 | 0.50 | 82 | 1014.0 |
| 20260902214218 | 87 | 62 | 2.0 | 9.0 | 0.00 | 0.50 | 0.50 | 81 | 1014.0 |
| 20260902213652 | 87 | 92 | 5.0 | 9.0 | 0.00 | 0.50 | 0.50 | 81 | 1014.0 |
| 20260902213147 | 87 | 93 | 5.0 | 9.0 | 0.00 | 0.50 | 0.50 | 80 | 1013.9 |
| 20260902212643 | 88 | 128 | 4.0 | 9.0 | 0.00 | 0.50 | 0.50 | 80 | 1013.9 |
| 20260902212200 | 88 | 140 | 4.0 | 9.0 | 0.00 | 0.50 | 0.50 | 82 | 1013.9 |
| 20260902211715 | 87 | 99 | 7.0 | 10.0 | 0.00 | 0.50 | 0.50 | 80 | 1013.9 |
| 20260902211130 | 88 | 97 | 6.0 | 10.0 | 0.00 | 0.50 | 0.50 | 80 | 1013.8 |
| 20260902210706 | 88 | 61 | 6.0 | 11.0 | 0.00 | 0.50 | 0.50 | 80 | 1013.9 |
| 20260902210202 | 88 | 112 | 6.0 | 10.0 | 0.00 | 0.50 | 0.50 | 80 | 1013.9 |
| 20260902205730 | 88 | 119 | 2.0 | 11.0 | 0.00 | 0.50 | 0.50 | 80 | 1014.0 |
| 20260902205226 | 88 | 66 | 5.0 | 11.0 | 0.00 | 0.50 | 0.50 | 80 | 1014.0 |
| 20260902204641 | 88 | 108 | 5.0 | 12.0 | 0.00 | 0.50 | 0.50 | 79 | 1013.9 |
| 20260902204159 | 89 | 59 | 7.0 | 12.0 | 0.00 | 0.50 | 0.50 | 78 | 1013.9 |
| 20260902203716 | 88 | 101 | 3.0 | 10.0 | 0.00 | 0.50 | 0.50 | 79 | 1013.9 |
| 20260902203151 | 88 | 119 | 5.0 | 10.0 | 0.00 | 0.50 | 0.50 | 78 | 1013.9 |
| 20260902202708 | 88 | 69 | 5.0 | 11.0 | 0.00 | 0.50 | 0.50 | 79 | 1014.0 |
| 20260902202224 | 88 | 106 | 7.0 | 12.0 | 0.00 | 0.50 | 0.50 | 79 | 1013.9 |
| 20260902201638 | 88 | 104 | 4.0 | 12.0 | 0.00 | 0.50 | 0.50 | 79 | 1014.0 |
| 20260902201215 | 88 | 90 | 7.0 | 11.0 | 0.00 | 0.50 | 0.50 | 79 | 1014.1 |
| 20260902200746 | 88 | 90 | 6.0 | 11.0 | 0.00 | 0.50 | 0.50 | 78 | 1014.1 |
| 20260902200141 | 88 | 96 | 5.0 | 11.0 | 0.00 | 0.51 | 0.50 | 80 | 1014.1 |
| 20260902195649 | 88 | 44 | 7.0 | 13.0 | 0.00 | 0.51 | 0.50 | 79 | 1014.0 |
| 20260902195227 | 88 | 94 | 6.0 | 13.0 | 0.00 | 0.51 | 0.50 | 79 | 1014.0 |
| 20260902194702 | 88 | 54 | 3.0 | 11.0 | 0.00 | 0.51 | 0.50 | 78 | 1014.1 |
| 20260902194140 | 88 | 77 | 4.0 | 12.0 | 0.00 | 0.51 | 0.50 | 80 | 1014.1 |
| 20260902193658 | 88 | 86 | 8.0 | 12.0 | 0.00 | 0.51 | 0.50 | 79 | 1014.2 |
| 20260902193215 | 88 | 80 | 5.0 | 10.0 | 0.00 | 0.51 | 0.50 | 79 | 1014.4 |
| 20260902192710 | 88 | 96 | 3.0 | 11.0 | 0.00 | 0.51 | 0.50 | 79 | 1014.4 |
| 20260902192227 | 88 | 109 | 7.0 | 12.0 | 0.00 | 0.51 | 0.50 | 78 | 1014.6 |
| 20260902191723 | 89 | 94 | 5.0 | 12.0 | 0.00 | 0.51 | 0.50 | 78 | 1014.7 |
| 20260902191139 | 89 | 74 | 5.0 | 13.0 | 0.00 | 0.51 | 0.50 | 77 | 1014.7 |
| 20260902190657 | 89 | 103 | 5.0 | 13.0 | 0.00 | 0.51 | 0.50 | 76 | 1014.7 |
| 20260902190134 | 89 | 89 | 5.0 | 10.0 | 0.00 | 0.73 | 0.50 | 78 | 1014.5 |
| 20260902185719 | 89 | 116 | 4.0 | 11.0 | 0.00 | 0.73 | 0.50 | 79 | 1014.7 |
| 20260902185133 | 88 | 91 | 7.0 | 11.0 | 0.00 | 0.73 | 0.50 | 79 | 1014.6 |
| 20260902184727 | 88 | 53 | 8.0 | 10.0 | 0.00 | 0.73 | 0.50 | 78 | 1014.7 |
| 20260902184202 | 88 | 111 | 6.0 | 11.0 | 0.00 | 0.73 | 0.50 | 79 | 1014.6 |
| 20260902183658 | 88 | 71 | 6.0 | 11.0 | 0.00 | 0.73 | 0.50 | 79 | 1014.7 |
| 20260902183135 | 88 | 107 | 7.0 | 10.0 | 0.00 | 0.73 | 0.50 | 78 | 1014.8 |
| 20260902182633 | 89 | 102 | 6.0 | 10.0 | 0.00 | 0.73 | 0.50 | 78 | 1014.9 |
| 20260902182251 | 89 | 94 | 4.0 | 10.0 | 0.00 | 0.73 | 0.50 | 78 | 1014.9 |
| 20260902181706 | 89 | 99 | 4.0 | 10.0 | 0.00 | 0.73 | 0.50 | 79 | 1014.9 |
| 20260902181142 | 89 | 101 | 6.0 | 10.0 | 0.00 | 0.73 | 0.50 | 80 | 1015.0 |
| 20260902180658 | 88 | 86 | 5.0 | 11.0 | 0.00 | 0.73 | 0.50 | 80 | 1015.2 |
| 20260902180249 | 88 | 111 | 6.0 | 11.0 | 0.00 | 0.73 | 0.50 | 79 | 1015.2 |
| 20260902175633 | 88 | 92 | 3.0 | 9.0 | 0.00 | 0.73 | 0.50 | 80 | 1015.2 |
| 20260902175210 | 88 | 80 | 4.0 | 9.0 | 0.00 | 0.73 | 0.50 | 79 | 1015.2 |
| 20260902174706 | 88 | 29 | 5.0 | 9.0 | 0.00 | 0.73 | 0.50 | 79 | 1015.2 |
| 20260902174142 | 89 | 119 | 4.0 | 9.0 | 0.00 | 0.73 | 0.50 | 78 | 1015.3 |
| 20260902173719 | 89 | 78 | 4.0 | 9.0 | 0.00 | 0.73 | 0.50 | 78 | 1015.4 |
| 20260902173637 | 89 | 78 | 4.0 | 9.0 | 0.00 | 0.73 | 0.50 | 78 | 1015.4 |
| 20260902173235 | 89 | 110 | 4.0 | 6.0 | 0.00 | 0.73 | 0.50 | 77 | 1015.5 |
| 20260902173132 | 89 | 110 | 4.0 | 6.0 | 0.00 | 0.73 | 0.50 | 77 | 1015.5 |
| 20260902172629 | 89 | 36 | 2.0 | 5.0 | 0.00 | 0.73 | 0.50 | 75 | 1015.5 |
| 20260902172208 | 89 | 326 | 2.0 | 5.0 | 0.00 | 0.73 | 0.50 | 76 | 1015.7 |
| 20260902171746 | 89 | 21 | 1.0 | 6.0 | 0.00 | 0.73 | 0.50 | 75 | 1015.7 |
| 20260902171240 | 89 | 344 | 3.0 | 6.0 | 0.00 | 0.73 | 0.50 | 75 | 1015.8 |
| 20260902170635 | 89 | 308 | 2.0 | 5.0 | 0.00 | 0.73 | 0.50 | 75 | 1015.8 |
| 20260902170250 | 88 | 12 | 3.0 | 5.0 | 0.00 | 0.73 | 0.50 | 77 | 1015.9 |
| 20260902165634 | 88 | 250 | 0.0 | 5.0 | 0.00 | 0.73 | 0.50 | 77 | 1016.1 |
| 20260902165248 | 88 | 250 | 2.0 | 5.0 | 0.00 | 0.73 | 0.50 | 78 | 1016.2 |
| 20260902164723 | 88 | 333 | 2.0 | 4.0 | 0.00 | 0.73 | 0.50 | 80 | 1016.2 |
| 20260902164640 | 88 | 333 | 2.0 | 4.0 | 0.00 | 0.73 | 0.50 | 80 | 1016.2 |
| 20260902164157 | 87 | 22 | 1.0 | 6.0 | 0.00 | 0.73 | 0.50 | 81 | 1016.2 |
| 20260902163635 | 87 | 5 | 1.0 | 6.0 | 0.00 | 0.73 | 0.50 | 80 | 1016.3 |
| 20260902163153 | 86 | 253 | 3.0 | 7.0 | 0.00 | 0.73 | 0.50 | 81 | 1016.4 |
| 20260902162749 | 86 | 115 | 1.0 | 3.0 | 0.00 | 0.73 | 0.50 | 84 | 1016.4 |
| 20260902162142 | 85 | 119 | 0.0 | 0.0 | 0.00 | 0.73 | 0.50 | 84 | 1016.3 |
| 20260902161638 | 85 | 120 | 0.0 | 0.0 | 0.00 | 0.73 | 0.50 | 85 | 1016.4 |
| 20260902161135 | 85 | 120 | 0.0 | 0.0 | 0.00 | 0.73 | 0.50 | 85 | 1016.4 |
| 20260902160733 | 85 | 120 | 0.0 | 0.0 | 0.00 | 0.73 | 0.50 | 86 | 1016.4 |
| 20260902160147 | 85 | 120 | 0.0 | 0.0 | 0.00 | 0.73 | 0.50 | 86 | 1016.4 |
| 20260902155637 | 85 | 120 | 0.0 | 2.0 | 0.00 | 0.73 | 0.50 | 87 | 1016.4 |
| 20260902155214 | 84 | 120 | 0.0 | 3.0 | 0.00 | 0.73 | 0.50 | 88 | 1016.4 |
| 20260902154750 | 84 | 120 | 2.0 | 3.0 | 0.00 | 0.73 | 0.50 | 88 | 1016.4 |
| 20260902154205 | 84 | 120 | 0.0 | 3.0 | 0.00 | 0.73 | 0.50 | 89 | 1016.4 |
| 20260902153701 | 84 | 120 | 1.0 | 2.0 | 0.00 | 0.73 | 0.50 | 90 | 1016.3 |
| 20260902153219 | 83 | 120 | 1.0 | 2.0 | 0.00 | 0.73 | 0.50 | 91 | 1016.5 |
| 20260902153137 | 83 | 120 | 1.0 | 2.0 | 0.00 | 0.73 | 0.50 | 91 | 1016.5 |
| 20260902152636 | 83 | 120 | 0.0 | 4.0 | 0.00 | 0.73 | 0.50 | 92 | 1016.5 |
| 20260902152216 | 83 | 120 | 1.0 | 3.0 | 0.00 | 0.73 | 0.50 | 92 | 1016.6 |
| 20260902151652 | 83 | 120 | 1.0 | 4.0 | 0.00 | 0.73 | 0.50 | 93 | 1016.6 |
| 20260902151129 | 82 | 120 | 1.0 | 2.0 | 0.00 | 0.73 | 0.50 | 93 | 1016.5 |
| 20260902150645 | 82 | 120 | 0.0 | 0.0 | 0.00 | 0.73 | 0.50 | 93 | 1016.5 |
| 20260902150142 | 82 | 120 | 0.0 | 0.0 | 0.00 | 0.74 | 0.50 | 94 | 1016.4 |
| 20260902145628 | 82 | 120 | 0.0 | 0.0 | 0.00 | 0.74 | 0.50 | 95 | 1016.3 |
| 20260902145144 | 82 | 120 | 0.0 | 0.0 | 0.00 | 0.74 | 0.50 | 95 | 1016.2 |
| 20260902144701 | 81 | 120 | 0.0 | 0.0 | 0.00 | 0.74 | 0.50 | 95 | 1016.2 |
| 20260902144137 | 81 | 120 | 0.0 | 0.0 | 0.00 | 0.74 | 0.50 | 96 | 1016.2 |
| 20260902143655 | 81 | 120 | 0.0 | 0.0 | 0.00 | 0.74 | 0.50 | 96 | 1016.3 |
| 20260902143130 | 81 | 120 | 0.0 | 0.0 | 0.00 | 0.74 | 0.50 | 96 | 1016.3 |
| 20260902142748 | 81 | 120 | 0.0 | 0.0 | 0.00 | 0.74 | 0.50 | 97 | 1016.3 |
| 20260902142706 | 81 | 120 | 0.0 | 0.0 | 0.00 | 0.74 | 0.50 | 97 | 1016.3 |
| 20260902142143 | 81 | 120 | 0.0 | 0.0 | 0.00 | 0.74 | 0.50 | 97 | 1016.3 |
| 20260902141721 | 81 | 120 | 0.0 | 0.0 | 0.00 | 0.74 | 0.50 | 97 | 1016.4 |
| 20260902141157 | 81 | 120 | 0.0 | 0.0 | 0.00 | 0.74 | 0.50 | 97 | 1016.2 |
| 20260902140654 | 81 | 120 | 0.0 | 0.0 | 0.00 | 0.74 | 0.50 | 97 | 1016.2 |
| 20260902140131 | 81 | 120 | 0.0 | 0.0 | 0.00 | 0.74 | 0.50 | 98 | 1016.2 |
| 20260902135737 | 80 | 120 | 0.0 | 0.0 | 0.00 | 0.74 | 0.50 | 98 | 1016.1 |
| 20260902135634 | 80 | 120 | 0.0 | 0.0 | 0.00 | 0.74 | 0.50 | 98 | 1016.1 |
| 20260902135133 | 80 | 120 | 0.0 | 2.0 | 0.00 | 0.74 | 0.50 | 98 | 1016.1 |
| 20260902134630 | 80 | 120 | 0.0 | 3.0 | 0.00 | 0.74 | 0.50 | 98 | 1016.1 |
| 20260902134146 | 80 | 120 | 1.0 | 2.0 | 0.00 | 0.74 | 0.50 | 98 | 1016.1 |
| 20260902133722 | 80 | 120 | 0.0 | 0.0 | 0.00 | 0.74 | 0.50 | 98 | 1016.1 |
| 20260902133640 | 80 | 120 | 0.0 | 0.0 | 0.00 | 0.74 | 0.50 | 98 | 1016.1 |
| 20260902133137 | 80 | 120 | 0.0 | 0.0 | 0.00 | 0.74 | 0.50 | 98 | 1015.9 |
| 20260902132655 | 80 | 120 | 0.0 | 0.0 | 0.00 | 0.74 | 0.50 | 98 | 1015.9 |
| 20260902132131 | 80 | 120 | 0.0 | 0.0 | 0.00 | 0.74 | 0.50 | 98 | 1015.8 |
| 20260902131743 | 80 | 120 | 0.0 | 0.0 | 0.00 | 0.74 | 0.50 | 98 | 1015.8 |
| 20260902131158 | 80 | 120 | 0.0 | 0.0 | 0.00 | 0.74 | 0.50 | 98 | 1015.7 |
| 20260902130638 | 80 | 120 | 0.0 | 0.0 | 0.00 | 0.74 | 0.50 | 98 | 1015.7 |
| 20260902130135 | 80 | 120 | 0.0 | 0.0 | 0.00 | 0.74 | 0.50 | 98 | 1015.8 |
| 20260902125643 | 80 | 120 | 0.0 | 0.0 | 0.00 | 0.74 | 0.50 | 98 | 1015.9 |
| 20260902125220 | 80 | 120 | 0.0 | 0.0 | 0.00 | 0.74 | 0.50 | 98 | 1015.9 |
| 20260902124634 | 79 | 120 | 0.0 | 0.0 | 0.00 | 0.74 | 0.50 | 98 | 1015.8 |
| 20260902124132 | 79 | 120 | 0.0 | 0.0 | 0.00 | 0.74 | 0.50 | 98 | 1015.7 |
| 20260902123651 | 79 | 120 | 0.0 | 0.0 | 0.00 | 0.74 | 0.50 | 98 | 1015.6 |
| 20260902123147 | 79 | 120 | 0.0 | 0.0 | 0.00 | 0.74 | 0.50 | 98 | 1015.6 |
| 20260902122645 | 79 | 120 | 0.0 | 0.0 | 0.00 | 0.74 | 0.50 | 98 | 1015.7 |
| 20260902122143 | 79 | 120 | 0.0 | 0.0 | 0.00 | 0.74 | 0.50 | 98 | 1015.5 |
| 20260902121701 | 79 | 119 | 0.0 | 0.0 | 0.00 | 0.74 | 0.50 | 98 | 1015.5 |
| 20260902121157 | 79 | 120 | 0.0 | 0.0 | 0.00 | 0.74 | 0.50 | 98 | 1015.6 |
| 20260902120634 | 79 | 120 | 0.0 | 0.0 | 0.00 | 0.74 | 0.50 | 98 | 1015.5 |
| 20260902120233 | 79 | 120 | 0.0 | 0.0 | 0.00 | 0.74 | 0.50 | 98 | 1015.6 |
| 20260902120129 | 79 | 120 | 0.0 | 0.0 | 0.00 | 0.74 | 0.50 | 98 | 1015.6 |
| 20260902115718 | 79 | 120 | 0.0 | 0.0 | 0.00 | 0.74 | 0.50 | 98 | 1015.5 |
| 20260902115134 | 79 | 120 | 0.0 | 0.0 | 0.00 | 0.74 | 0.50 | 98 | 1015.6 |
| 20260902114710 | 79 | 120 | 0.0 | 0.0 | 0.00 | 0.74 | 0.50 | 98 | 1015.6 |
| 20260902114144 | 78 | 119 | 0.0 | 0.0 | 0.00 | 0.74 | 0.50 | 98 | 1015.6 |
| 20260902113717 | 78 | 120 | 0.0 | 0.0 | 0.00 | 0.74 | 0.50 | 98 | 1015.6 |
| 20260902113136 | 78 | 120 | 0.0 | 0.0 | 0.00 | 0.74 | 0.50 | 98 | 1015.6 |
| 20260902112633 | 78 | 120 | 0.0 | 0.0 | 0.00 | 0.74 | 0.50 | 98 | 1015.6 |
| 20260902112150 | 78 | 120 | 0.0 | 0.0 | 0.00 | 0.74 | 0.50 | 98 | 1015.5 |
| 20260902111700 | 78 | 119 | 0.0 | 0.0 | 0.00 | 0.74 | 0.50 | 98 | 1015.4 |
| 20260902111156 | 78 | 120 | 0.0 | 0.0 | 0.00 | 0.74 | 0.50 | 98 | 1015.3 |
| 20260902110636 | 78 | 119 | 0.0 | 0.0 | 0.00 | 0.74 | 0.50 | 97 | 1015.2 |
| 20260902110132 | 78 | 120 | 0.0 | 0.0 | 0.00 | 0.74 | 0.50 | 97 | 1015.3 |
| 20260902105701 | 78 | 120 | 0.0 | 0.0 | 0.00 | 0.74 | 0.50 | 97 | 1015.2 |
| 20260902105135 | 78 | 120 | 0.0 | 0.0 | 0.00 | 0.74 | 0.50 | 97 | 1015.1 |
| 20260902104747 | 78 | 120 | 0.0 | 0.0 | 0.00 | 0.74 | 0.50 | 97 | 1015.1 |
| 20260902104141 | 78 | 119 | 0.0 | 0.0 | 0.00 | 0.74 | 0.50 | 97 | 1015.1 |
| 20260902103639 | 78 | 119 | 0.0 | 0.0 | 0.00 | 0.74 | 0.50 | 97 | 1015.0 |
| 20260902103141 | 78 | 119 | 0.0 | 0.0 | 0.00 | 0.74 | 0.50 | 97 | 1015.0 |
| 20260902102638 | 78 | 119 | 0.0 | 0.0 | 0.00 | 0.74 | 0.50 | 97 | 1015.0 |
| 20260902102216 | 78 | 119 | 0.0 | 0.0 | 0.00 | 0.74 | 0.50 | 97 | 1015.2 |
| 20260902101629 | 78 | 120 | 0.0 | 0.0 | 0.00 | 0.74 | 0.50 | 97 | 1015.2 |
| 20260902101223 | 78 | 120 | 0.0 | 0.0 | 0.00 | 0.74 | 0.50 | 97 | 1015.2 |
| 20260902101140 | 78 | 120 | 0.0 | 0.0 | 0.00 | 0.74 | 0.50 | 97 | 1015.2 |
| 20260902100638 | 78 | 119 | 0.0 | 0.0 | 0.00 | 0.74 | 0.50 | 97 | 1015.1 |
| 20260902100140 | 78 | 119 | 0.0 | 0.0 | 0.00 | 0.74 | 0.50 | 97 | 1015.1 |
| 20260902095725 | 78 | 119 | 0.0 | 0.0 | 0.00 | 0.74 | 0.50 | 97 | 1014.9 |
| 20260902095200 | 78 | 119 | 0.0 | 0.0 | 0.00 | 0.74 | 0.50 | 97 | 1014.8 |
| 20260902094716 | 78 | 119 | 0.0 | 0.0 | 0.00 | 0.74 | 0.50 | 97 | 1014.6 |
| 20260902094634 | 78 | 119 | 0.0 | 0.0 | 0.00 | 0.74 | 0.50 | 97 | 1014.6 |
| 20260902094212 | 78 | 120 | 0.0 | 0.0 | 0.00 | 0.74 | 0.50 | 97 | 1014.5 |